weather.gov     
National Weather Service

Terminal Aerodrome Forecast
NWS Homepage
This page is being discontinued on March 12, 2014.
The same data is available at this site. Please update your bookmarks.
Thank you, and we apologize for the inconvenience.
Please send an email to SR-SRH.Webmaster@noaa.gov with any concerns.


Current Version
Previous Version:    01  02  03  04  05  06  07  08  09  10  11  12  13  14  15  16  17  18  19  20  21  22  23  24  25  26  27  28  29  30  
   31  32  33  34  35  36  37  38  39  40  41  42  43  44  45  46  47  48  49  50  51  52  53  
[Printable]
185
FTUS41 KRLX 281400 CCA
TAFCRW
TAF COR
KCRW 281437Z 2815/2912 27009KT P6SM OVC018
      TEMPO 2815/2818 SCT018
     FM281800 29010G16KT P6SM BKN045
     FM290000 31006KT P6SM BKN080
     FM290500 00000KT 5SM BR SCT080
     FM290700 00000KT 2SM BR SCT040
     FM290800 00000KT 1/4SM FG VV001=


U.S. Dept. of Commerce
NOAA National Weather Service
1325 East West Highway
Silver Spring, MD 20910
E-mail: w-nws.webmaster@noaa.gov
Page last modified: May 16, 2007
NATIONAL WEATHER SERVICE: for Safety, for Work, for Fun - FOR LIFE